Camp Pendleton, CA

11:25 PM PST on December 02, 2016 (GMT -0800)
Camp Pendleton Marine Corps Air Station

Weather History for KNFG - November, 2011

Change the Weather History Date:

Friday, November 25, 2011

  Actual Average Record
Temperature  
Mean Temperature 52 °F -  
Max Temperature 66 °F 67 °F 80 °F (2014)
Min Temperature 39 °F 39 °F 30 °F (2010)
Degree Days  
Heating Degree Days 12    
Growing Degree Days 2 (Base 50)    
Moisture  
Dew Point 44 °F    
Average Humidity 78    
Maximum Humidity 90    
Minimum Humidity 56    
Precipitation  
Precipitation 0.01 in - - ()
Sea Level Pressure  
Sea Level Pressure 30.18 in    
Wind  
Wind Speed 2 mph (SW)    
Max Wind Speed 9 mph    
Max Gust Speed -    
Visibility 9 miles    
Events      
Averages and records for this station are not official NWS values.
T = Trace of Precipitation, MM = Missing Value Source: NWS Daily Summary

Daily Weather History Graph

Daily Weather History Graph

Search for Another Location

Airport or City:

Trip Planner

Search our weather history database for the weather conditions in past years. The results will help you decide how hot, cold, wet, or windy it might be!

Date:

Astronomy

Nov. 25, 2011 Rise Set
Actual Time 6:29 AM PST 4:42 PM PST
Civil Twilight 6:02 AM PST 5:09 PM PST
Nautical Twilight 5:32 AM PST 5:40 PM PST
Astronomical Twilight 5:02 AM PST 6:09 PM PST
Moon 6:59 AM PST (11/25) 5:18 PM PST (11/25)
Length of Visible Light 11h 07m
Length of Day
10h 13m
New Moon, 0% of the Moon is Illuminated
Nov 25
New Moon
Dec 2
First Quarter
Dec 10
Full
Dec 17
Last Quarter
Dec 24
New

Hourly Weather History & Observations

Time (PST) Temp. Windchill Dew Point Humidity Pressure Visibility Wind Dir Wind Speed Gust Speed Precip Events Conditions
12:54 AM 46.0 °F - 42.1 °F 86% 30.14 in 10.0 mi Calm Calm - N/A   Clear
1:54 AM 43.0 °F - 37.9 °F 82% 30.15 in 10.0 mi Calm Calm - N/A   Clear
2:54 AM 43.0 °F 41.3 °F 39.9 °F 89% 30.15 in 10.0 mi NE 3.5 mph - N/A   Clear
3:54 AM 43.0 °F - 39.0 °F 86% 30.15 in 10.0 mi Calm Calm - N/A   Clear
4:54 AM 42.1 °F - 37.0 °F 82% 30.16 in 9.0 mi Calm Calm - N/A   Clear
5:54 AM 39.0 °F 36.8 °F 35.1 °F 86% 30.16 in 7.0 mi NNW 3.5 mph - N/A   Clear
6:54 AM 39.0 °F - 35.1 °F 86% 30.19 in 6.0 mi Calm Calm - N/A   Clear
7:54 AM 45.0 °F - 42.1 °F 90% 30.18 in 8.0 mi Calm Calm - N/A   Clear
8:54 AM 50.0 °F - 45.0 °F 83% 30.20 in 10.0 mi Calm Calm - N/A   Clear
9:54 AM 59.0 °F - 46.9 °F 64% 30.19 in 10.0 mi Calm Calm - N/A   Clear
10:54 AM 62.1 °F - 46.0 °F 56% 30.19 in 10.0 mi SSE 4.6 mph - N/A   Clear
11:54 AM 64.0 °F - 48.9 °F 58% 30.16 in 10.0 mi South 6.9 mph - N/A   Clear
12:54 PM 66.0 °F - 50.0 °F 56% 30.14 in 10.0 mi Variable 5.8 mph - N/A   Clear
1:54 PM 64.0 °F - 50.0 °F 60% 30.14 in 10.0 mi WSW 9.2 mph - N/A   Clear
2:54 PM 63.0 °F - 52.0 °F 67% 30.14 in 10.0 mi SW 6.9 mph - N/A   Clear
3:54 PM 61.0 °F - 52.0 °F 72% 30.15 in 10.0 mi SW 4.6 mph - N/A   Clear
4:54 PM 59.0 °F - 51.1 °F 75% 30.16 in 10.0 mi South 3.5 mph - N/A   Clear
5:54 PM 54.0 °F - 48.9 °F 83% 30.18 in 10.0 mi NE 4.6 mph - N/A   Clear
6:54 PM 51.1 °F - 46.0 °F 83% 30.20 in 10.0 mi Calm Calm - N/A   Clear
7:54 PM 50.0 °F - 46.0 °F 86% 30.22 in 10.0 mi Calm Calm - N/A   Clear
8:54 PM 48.9 °F - 45.0 °F 86% 30.22 in 10.0 mi Calm Calm - N/A   Clear
9:54 PM 46.0 °F - 42.1 °F 86% 30.23 in 8.0 mi Calm Calm - N/A   Clear
10:54 PM 46.0 °F - 41.0 °F 83% 30.23 in 10.0 mi Calm Calm - 0.01 in   Clear
11:37 PM 44.6 °F - 39.2 °F 81% 30.23 in 9.0 mi Calm Calm - N/A   Partly Cloudy
11:54 PM 43.0 °F - 39.0 °F 86% 30.23 in 8.0 mi Calm Calm - N/A   Clear